Terminal Aerodrome Forecast
Issued by NWS Wilmington, OH

Current Version | Previous Version | Text Only | Print | Product List | Glossary Off
Versions: 1 2 3 4 5 6 7 8 9 10 11 12 13 14 15 16 17 18 19

000
FTUS41 KILN 010530
TAFDAY
TAF
KDAY 010530Z 0106/0206 23003KT P6SM SKC
     FM010800 23003KT 5SM BR SKC
      TEMPO 0109/0112 3SM BR
     FM011300 24005KT P6SM SKC
     FM011800 25008KT P6SM BKN040
     FM020100 25004KT P6SM FEW050=

USA.gov is the U.S. government's official web portal to all federal, state and local government web resources and services.